DELTA 1 DEB

Satellite information

Favourite Embed

Satellite Type and Status

DEBRISIN ORBIT

Key statistics

Satellite DELTA 1 DEB at a glance.

Uptime

17397

Days in orbit

Revolutions

≈ 13.9

Per day

Orbit

SSO

Sun Synchronous Orbit

Inclination

99.0

Latest

Satellite identification and parameters

Extended collection of information and parameters for DELTA 1 DEB.

Object identification

Identified? True

Debris? True

Object name: DELTA 1 DEB

International designator: 1978-026DP

Object number (NORAD): 12270

Object ID (CCSDS): 12270

Country: UNITED STATES OF AMERICA (US)

Current information (Y/N): Y

RCS size: SMALL

Orbital parameters

Period: 103.547 minutes

Inclination: 99.0495 deg

SMA: 7304.392 km

Apoapsis: 975.415 km

Periapsis: 877.098 km

RAAN: 218.1747 deg

Eccentricy: 0.00672995

Argument of periapsis: 95.107 deg

Mean anomaly: 295.7664 deg

Mean motion: 13.90678354 rev/day

Mean motion (dot): 0.00000219 rev/day2

B* drag term: 0.00020588721 1/REarth

Two-line elements (TLE)

Creation date: Oct. 21, 2025, 3:26 a.m.

Reference frame: TEME

Reference center: EARTH

Epoch: Oct. 20, 2025, 5:23 p.m. UTC

TLE line 0: 0 DELTA 1 DEB

TLE line 1: 1 12270U 78026DP 25293.72487943 .00000219 00000-0 20589-3 0 9999

TLE line 2: 2 12270 99.0495 218.1747 0067299 95.1070 295.7664 13.90678354267027

Live tracking on map

Real-time ground track for satellite DELTA 1 DEB.

In-orbit conjunctions

A list of the most updated potential collisions computed for object DELTA 1 DEB.

Target Orbit TCA Probability of collision Miss distance Type
FENGYUN 1C DEB SSO 2024-11-08 23:30:50 0.002596217 157.0 (m) DEBRIS
THOR ABLESTAR DEB LEO 2024-10-07 13:50:09 0.0001036899 44.0 (m) DEBRIS

Associated space launch

Earth observation satellite

DELTA 1 DEB was lifted into orbit during the mission ‘Delta 2910 | Landsat 3’, on board a Delta 2910 space rocket.

The launch took place on March 5, 1978, 5:54 p.m. from Space Launch Complex 2W.

For more information about the launch, click the button.

Launch to space Delta 2910 | Landsat 3
Delta 2910 | Landsat 3

Agency: N/A

Status: Launch Successful

Launch date: March 5, 1978, 5:54 p.m. UTC

Rocket: Delta 2910

Launch pad: Space Launch Complex 2W

Location: Vandenberg SFB, CA, USA

...

Latest news about this satellite

There are no fresh news available about this satellite. Check back as we update our databases every day.


Newsletter sign-up

Weekly statistics, charts and insights to help you stay on top of the space industry.